Regional Weather Roundup
Issued by NWS

Home | Current Version | Previous Version | Graphics & Text | Print | Product List | Glossary On
Versions: 1 2 3 4 5 6 7 8 9 10 11 12 13 14 15 16 17 18 19 20 21 22 23 24 25 26 27 28 29 30 31 32 33 34 35 36 37 38 39 40 41 42 43 44 45 46 47 48 49 50
619
ASUS43 KMKX 240400
RWRWI

WISCONSIN REGIONAL WEATHER ROUNDUP
NATIONAL WEATHER SERVICE MILWAUKEE/SULLIVAN WI
1100 PM CDT TUE MAY 23 2017

NOTE: "FAIR" INDICATES FEW OR NO CLOUDS BELOW 12,000 FEET WITH NO
SIGNIFICANT WEATHER AND/OR OBSTRUCTIONS TO VISIBILITY.

WIZ001-002-006>008-014>016-023>028-240500-
NORTHWEST WISCONSIN

CITY           SKY/WX    TMP DP  RH WIND       PRES   REMARKS
SUPERIOR ARPT  NOT AVBL
ASHLAND        CLOUDY    45  43  93 NE5       29.89S
HAYWARD        MOCLDY    47  41  80 NE10      29.86S
SIREN          CLOUDY    49  43  80 NE7       29.88R
CUMBERLAND     CLOUDY    45  41  87 N9        29.84S
RICE LAKE      CLOUDY    48  43  83 N10       29.85S
CHETEK         CLOUDY    50  45  81 N3        29.83R
LADYSMITH      CLOUDY    49  45  84 N9        29.83F
EAU CLAIRE     NOT AVBL
MENOMONIE      CLOUDY    53  44  70 N10       29.80S
NEW RICHMOND   CLOUDY    51  43  73 NE12G18   29.84R
OSCEOLA        PTCLDY    52  45  77 N9        29.87S
$$

WIZ003>005-009-010-017-018-240500-
NORTH CENTRAL WISCONSIN

CITY           SKY/WX    TMP DP  RH WIND       PRES   REMARKS
MANITOWISH WTR CLOUDY    47  47  99 NE6       29.83S
ARBOR VITAE    CLOUDY    52  47  84 NE6       29.81S
WOODRUFF       CLOUDY    52  47  84 NE6       29.81S
RHINELANDER    CLOUDY    51  45  79 NE6       29.81S
EAGLE RIVER    CLOUDY    48  42  80 NE6       29.82S
LAND O LAKES   CLOUDY    47  43  87 NE7       29.84S
PHILLIPS       CLOUDY    49  44  83 NE10      29.81S
TOMAHAWK       CLOUDY    50  44  80 NE5       29.80F
MEDFORD        CLOUDY    50  44  79 NE7       29.79R
MERRILL        LGT RAIN  51  48  90 N5        29.79S
$$

WIZ029-030-035-036-043>047-240500-
CENTRAL WISCONSIN

CITY           SKY/WX    TMP DP  RH WIND       PRES   REMARKS
WAUSAU         LGT RAIN  50  49  96 CALM      29.77S
MOSINEE        RAIN      48  46  93 E3        29.79S
MARSHFIELD     LGT RAIN  49  45  86 E6        29.77S
STEVENS POINT  DRIZZLE   47  47  97 NE6       29.77F
WAUPACA        LGT RAIN  51  49  93 CALM      29.76F
WAUTOMA        CLOUDY    48  47  96 NE7       29.75S
WISC RAPIDS    CLOUDY    50  47  89 NE7       29.77F
CAMP DOUGLAS   NOT AVBL
$$

WIZ011>013-019>022-031-037>040-048>050-240500-
NORTHEAST WISCONSIN

CITY           SKY/WX    TMP DP  RH WIND       PRES   REMARKS
ANTIGO         LGT RAIN  49  47  91 E7        29.79S
SHAWANO        LGT RAIN  53  50  90 NE6       29.77F
OCONTO         CLOUDY    50  49  96 NE6       29.77F
STURGEON BAY   LGT RAIN  49  47  93 N10       29.77S
GREEN BAY      LGT RAIN  51  50  96 NE21G26   29.75F
MANITOWOC      NOT AVBL
APPLETON       DRIZZLE   48  48 100 NE9       29.73F
CLINTONVILLE   RAIN      50  48  93 NE6       29.76F
OSHKOSH        CLOUDY    51  48  89 NE14      29.73F
$$

WIZ032>034-041-042-053>061-240500-
SOUTHWEST WISCONSIN

CITY           SKY/WX    TMP DP  RH WIND       PRES   REMARKS
LA CROSSE      LGT RAIN  53  50  89 N6        29.75R
SPARTA         LGT RAIN  49  49  98 NE5       29.76S
VIROQUA        CLOUDY    51  49  95 MISG      29.73S
BOSCOBEL       CLOUDY    54  51  90 VRB3      29.71F
PRAIRIE DU CHI CLOUDY    55  49  82 NE3       29.71S
PLATTEVILLE    CLOUDY    54  54 100 N6        29.70S
$$

WIZ056-057-062-063-064-067-068-240500-
SOUTH CENTRAL WISCONSIN

CITY           SKY/WX    TMP DP  RH WIND       PRES   REMARKS
REEDSBURG      CLOUDY    50  50 100 NE7       29.72F
BARABOO/DELLS  DRIZZLE   50  48  93 NE5       29.73S
LONE ROCK      NOT AVBL
MINERAL POINT  PTCLDY    54  54 100 NE6       29.70F
MADISON        CLOUDY    53  51  93 NE10      29.70S
MIDDLETON      CLOUDY    55  55 100 NE6       29.71S
WATERTOWN      CLOUDY    51  51 100 NE6       29.70S
MONROE         FOG       50  50 100 CALM      29.69S VSB 1/2
JANESVILLE     PTCLDY    52  52 100 CALM      29.69F FOG
$$

WIZ051-052-058>065-066-070>072-240500-
SOUTHEAST WISCONSIN

CITY           SKY/WX    TMP DP  RH WIND       PRES   REMARKS
MILWAUKEE      FOG       47  47 100 NE6       29.71F VSB 1/2
WAUKESHA       CLOUDY    46  46 100 NE6       29.72  FOG
MILWAUKEE/TIMM   N/A     46  45  93 NE6       29.72F FOG
RACINE         CLOUDY    48  46  93 N8        29.72F FOG
KENOSHA        CLOUDY    53  51  93 NE5       29.69F
FOND DU LAC    CLOUDY    50  46  86 NE12      29.73F
SHEBOYGAN      CLOUDY    49  48  97 NE12      29.72F
WEST BEND      CLOUDY    46  46 100 N5        29.71F
JUNEAU         CLOUDY    49  48  95 NE7       29.72F
$$

LSZ147-162-240500-
LAKE SUPERIOR

STATION/POSITION TIME  TEMP    WIND        PRES    WAVE
                       AIR SEA DIR/SP/G            HT/PER
                 (UTC) (F)     (DEG/KT/KT) (MB)    (FT/S)
W MID LAKE BUOY  0250   40 37  350/  6/  8 1012.7F   0
DEVILS ISLAND    0300   43     360/ 11/ 11 1012.9F
PORT WING        0140   41      20/  9/ 10 1012.5S
SAXON HARBOR     0340   42     330/  4/  5 1011.9S
$$

LMZ867-665-643>646-240500-
LAKE MICHIGAN

STATION/POSITION TIME  TEMP    WIND        PRES    WAVE
                       AIR SEA DIR/SP/G            HT/PER
                 (UTC) (F)     (DEG/KT/KT) (MB)    (FT/S)
CHAMBERS ISLAND  0340   48      10/ 11/ 14 1008.5S
N MID LAKE BUOY  0150   43 39   40/  8/  8 1009.1S   0
NORTHPORT PIER   0340   48      10/ 11/ 14 1008.8S
KEWAUNEE LAKESHO 0330   50     360/  7/ 10 1007.2F
SHEBOYGAN LAKESH 0300   46      10/ 14/ 16 1007.0F
PORT WASHINGTON  0340   47      50/  6/ 10 1007.5S
MILWAUKEE LAKESH 0330   45     360/  8/ 11   N/A
S MID LAKE BUOY  0250   50 45  110/  2/  2 1006.6S   0
KENOSHA   LAKESH 0300   54      90/  2/  3 1006.1
$$

TC  - TEMPERATURE IN CELSIUS
VSB - VISIBILITY IN STATUTE MILES
WCI - WIND CHILL INDEX
HX  - HEAT INDEX





USA.gov is the U.S. government's official web portal to all federal, state and local government web resources and services.